[[{"header":{"parameterUnit":"m.s-1","parameterCategory":2,"la1":30.2991,"la2":30.254,"lo1":-89.0895,"lo2":-89.0444,"dy":0.0017,"dx":0.0017,"nx":28,"ny":28,"refTime":"2023-08-24T03:00:00:Z","depth":"0","parameterNumber":2,"parameterNumberName":"U-component_of_CURRENTS"},"data":[0,0,0,0,0,0,0,0,0,0,0,0,0,0,0,0,0,0,0,0,0,0,0,0,0,0,0,0,0,0,0,0,0,0,0,0,0,0,0,0,0,0,0,0,0,0,0,0,0,0,0,0,0,0,0,0,0,0,0.226,0.226,0,0.2256,0.2256,0.2255,0.2242,0.2242,0.2242,0.2242,0.2223,0.2223,0.2222,0,0,0,0,0,0,0,0,0,0,0,0,0,0.2269,0.2269,0.226,0.226,0.226,0.2256,0.2256,0.2255,0.2242,0.2242,0.2242,0.2242,0.2223,0.2223,0.2222,0,0,0,0,0,0,0,0,0,0,0,0,0,0.2263,0.2269,0.226,0.2254,0.2254,0.2256,0.2256,0.2255,0.2242,0.2242,0.2242,0.2242,0.2223,0.2223,0.2222,0.2221,0,0,0.222,0.222,0,0,0,0,0,0,0,0,0.2263,0.2262,0.2255,0.2255,0.2254,0.2251,0.2253,0.2244,0.2242,0.2244,0.2242,0.2241,0.2233,0.2231,0.2228,0.222,0.2219,0.222,0.222,0.222,0.2219,0,0,0,0,0,0,0,0.2264,0.2263,0.2256,0.2255,0.2255,0.2258,0.2256,0.2251,0.2237,0.2244,0.2243,0.2247,0.2232,0.2228,0.2227,0.2219,0.222,0.222,0.2219,0.2219,0.2223,0.2224,0,0,0,0,0,0,0.2268,0.2263,0.2256,0.2256,0.2261,0.2258,0.2256,0.2251,0.2237,0.2236,0.2247,0.2246,0.223,0.2228,0.2227,0.2223,0.222,0.2219,0.2219,0.2223,0.2223,0.2224,0,0,0,0,0,0,0.2268,0.2267,0.2256,0.2262,0.2261,0.2258,0.2252,0.2251,0.2247,0.224,0.2238,0.2245,0.2229,0.2227,0.2222,0.2222,0.2219,0.2218,0.2222,0.2223,0.2223,0.2216,0,0,0,0,0,0,0.2269,0.2267,0.2263,0.2262,0.2261,0.2251,0.2252,0.2251,0.225,0.2249,0.2238,0.2236,0.2229,0.2223,0.2221,0.2221,0.2218,0.2221,0.2222,0.2223,0.2215,0.2216,0.2217,0,0,0,0,0,0.2269,0.2253,0.2262,0.2262,0.2255,0.2251,0.225,0.2246,0.225,0.2243,0.2241,0.2236,0.2228,0.2222,0.222,0.222,0.2221,0.2222,0.2223,0.2215,0.2216,0.2217,0,0,0,0,0,0,0.2254,0.2251,0.226,0.2245,0.2251,0.2249,0.2241,0.2248,0.2241,0.224,0.2237,0.2234,0.2233,0.223,0.2225,0.2227,0.2226,0.2227,0.2221,0.2221,0.2222,0.2222,0.2217,0,0,0,0,0,0.2252,0.2239,0.2246,0.2237,0.2238,0.2244,0.2243,0.2244,0.2241,0.2238,0.2233,0.2233,0.2237,0.2231,0.2231,0.2226,0.2242,0.2228,0.2228,0.2229,0.2229,0.2258,0.2261,0.2227,0.2227,0.2227,0,0,0.2243,0.2242,0.2235,0.2233,0.2235,0.2237,0.2241,0.2236,0.2239,0.2237,0.2231,0.2235,0.2238,0.2235,0.2234,0.223,0.2248,0.223,0.223,0.2231,0.2259,0.2262,0.2265,0.2228,0.2228,0.2228,0,0,0.2227,0.2221,0.2212,0.2215,0.2221,0.2225,0.2226,0.2228,0.2227,0.2226,0.2233,0.2235,0.2232,0.2234,0.2237,0.2243,0.2255,0.2246,0.2241,0.2268,0.2271,0.2274,0.2303,0.2309,0.2241,0.2241,0.2241,0,0.2221,0.2215,0.2209,0.2209,0.2212,0.2222,0.2223,0.2224,0.2224,0.2223,0.2223,0.2231,0.2232,0.2238,0.2242,0.2243,0.2264,0.2234,0.2269,0.2272,0.2275,0.2304,0.231,0.2241,0.2241,0.2241,0.2241,0,0.2207,0.2205,0.2198,0.2203,0.2202,0.2201,0.2209,0.2208,0.2212,0.2216,0.2219,0.2223,0.2229,0.2232,0.2238,0.2259,0.227,0.227,0.2264,0.2277,0.2308,0.2314,0.224,0.224,0.224,0.224,0,0,0.2186,0.2189,0.2188,0.2194,0.22,0.2197,0.2199,0.2204,0.2203,0.2206,0.2206,0.2219,0.2224,0.223,0.2238,0.2257,0.2298,0.2272,0.2273,0.2297,0.2367,0.236,0.2367,0.2307,0.2308,0.2308,0.2381,0,0.2184,0.2184,0.2183,0.2185,0.2189,0.2193,0.2192,0.2195,0.2196,0.2195,0.2205,0.2209,0.2223,0.2226,0.225,0.2279,0.2314,0.2279,0.2354,0.2356,0.2346,0.2373,0.2328,0.2388,0.2387,0.2389,0.2389,0,0.2177,0.218,0.2181,0.2183,0.2182,0.2181,0.2178,0.2179,0.2181,0.2182,0.219,0.2198,0.2221,0.2235,0.2301,0.2279,0.2332,0.2358,0.2361,0.2362,0.2362,0.2375,0.24,0.2197,0.2399,0.2398,0.2398,0,0.2176,0.2178,0.2179,0.2181,0.2182,0.2178,0.2176,0.2174,0.2168,0.2175,0.2169,0.2199,0.2206,0.227,0.232,0.2321,0.2392,0.24,0.245,0.245,0.2429,0.2425,0.2262,0.2473,0.2473,0.2472,0.2472,0,0.2177,0.2178,0.2177,0.218,0.2173,0.2172,0.216,0.2163,0.2157,0.2144,0.2165,0.2162,0.2217,0.2255,0.2321,0.2396,0.2401,0.2459,0.2471,0.2426,0.2421,0.2258,0.2223,0.2475,0.2475,0.2474,0.2474,0,0.2181,0.2181,0.2184,0.2181,0.2175,0.2171,0.2152,0.2139,0.2139,0.2124,0.2125,0.214,0.2191,0.2251,0.234,0.2389,0.2382,0.2497,0.2438,0.2441,0.2302,0.2273,0.2164,0.2118,0.2572,0.2572,0.2573,0,0.2187,0.2189,0.2186,0.218,0.2178,0.2165,0.2149,0.2136,0.2118,0.2107,0.2097,0.2133,0.2167,0.2283,0.2371,0.2487,0.2379,0.2501,0.2498,0.2284,0.2261,0.2163,0.2125,0.2473,0.2473,0.2472,0.2472,0,0.2201,0.2198,0.2201,0.2188,0.217,0.2146,0.2121,0.2104,0.208,0.2074,0.2068,0.2098,0.22,0.2279,0.2408,0.2473,0.2336,0.2496,0.2287,0.2185,0.2057,0.202,0.2428,0.2468,0.2468,0.2469,0.2469,0.2469,0.2213,0.2214,0.221,0.2193,0.2166,0.2125,0.2091,0.2068,0.2044,0.2015,0.2048,0.2089,0.2173,0.2356,0.2355,0.2275,0.2336,0.223,0.2222,0.2144,0.2057,0.2454,0.2494,0.2495,0.2495,0.2496,0.2496,0,0.2219,0.2216,0.221,0.2176,0.2132,0.212,0.2063,0.2019,0.1981,0.2008,0.2016,0.2084,0.2115,0.2128,0.2117,0.2005,0.1924,0.189,0.1706,0.1696,0.2048,0.1993,0.1909,0.1909,0.191,0.191,0.191,0.191,0.2223,0.2216,0.2207,0.2145,0.2111,0.2028,0.1986,0.1937,0.1936,0.1919,0.1945,0.1978,0.1968,0.1835,0.163,0.1593,0.1401,0.1379,0.1324,0.1503,0.153,0.1556,0.1484,0.1295,0.1295,0.0896,0.0893,0.0891]},{"header":{"parameterUnit":"m.s-1","parameterCategory":2,"la1":30.2991,"la2":30.254,"lo1":-89.0895,"lo2":-89.0444,"dy":0.0017,"dx":0.0017,"nx":28,"ny":28,"refTime":"2023-08-24T03:00:00:Z","depth":"0","parameterNumber":3,"parameterNumberName":"V-component_of_CURRENTS"},"data":[0,0,0,0,0,0,0,0,0,0,0,0,0,0,0,0,0,0,0,0,0,0,0,0,0,0,0,0,0,0,0,0,0,0,0,0,0,0,0,0,0,0,0,0,0,0,0,0,0,0,0,0,0,0,0,0,0,0,0.0341,0.0341,0,0.0333,0.0333,0.0333,0.0317,0.0317,0.0317,0.0316,0.0285,0.0284,0.0284,0,0,0,0,0,0,0,0,0,0,0,0,0,0.0301,0.0302,0.0341,0.0341,0.0341,0.0333,0.0333,0.0333,0.0318,0.0317,0.0317,0.0316,0.0285,0.0284,0.0284,0,0,0,0,0,0,0,0,0,0,0,0,0,0.0309,0.0302,0.0341,0.0332,0.0331,0.0333,0.0333,0.0333,0.0318,0.0317,0.0316,0.0316,0.0285,0.0284,0.0284,0.0291,0,0,0.0281,0.0281,0,0,0,0,0,0,0,0,0.0309,0.0311,0.0333,0.0332,0.0331,0.0325,0.0307,0.0317,0.0318,0.0323,0.0316,0.0316,0.0296,0.0294,0.0295,0.0289,0.0288,0.0281,0.0281,0.0281,0.028,0,0,0,0,0,0,0,0.0308,0.0311,0.0339,0.0333,0.0332,0.0313,0.0314,0.0309,0.0313,0.0323,0.0322,0.0319,0.0295,0.0296,0.0295,0.0287,0.0281,0.0281,0.028,0.028,0.0277,0.0277,0,0,0,0,0,0,0.0311,0.0311,0.0339,0.0339,0.0317,0.0314,0.0315,0.0328,0.0314,0.0311,0.032,0.0319,0.0298,0.0295,0.0293,0.0299,0.0281,0.028,0.0279,0.0276,0.0277,0.0277,0,0,0,0,0,0,0.031,0.0314,0.0339,0.0322,0.0324,0.0316,0.033,0.0328,0.0329,0.0312,0.0308,0.0323,0.0297,0.0294,0.0291,0.0298,0.028,0.0279,0.0276,0.0276,0.0277,0.0312,0,0,0,0,0,0,0.0309,0.0314,0.0326,0.0323,0.0325,0.0345,0.033,0.0329,0.0329,0.0327,0.0313,0.0309,0.0297,0.0292,0.0291,0.0296,0.0278,0.0275,0.0276,0.0277,0.031,0.0313,0.0316,0,0,0,0,0,0.0308,0.0321,0.0327,0.033,0.0342,0.0346,0.0345,0.0337,0.0329,0.0335,0.0324,0.031,0.0295,0.0292,0.029,0.0296,0.0275,0.0276,0.0277,0.0309,0.0313,0.0316,0,0,0,0,0,0,0.0307,0.0321,0.0327,0.0344,0.0349,0.0343,0.0344,0.0341,0.0338,0.0334,0.0317,0.0313,0.0313,0.03,0.0298,0.0296,0.0282,0.0282,0.0307,0.0311,0.0314,0.0309,0.0278,0,0,0,0,0,0.0315,0.033,0.0339,0.0351,0.0355,0.0353,0.0353,0.0351,0.0345,0.0343,0.0334,0.0323,0.0315,0.031,0.0303,0.0304,0.0291,0.0305,0.0308,0.031,0.0305,0.0295,0.0296,0.028,0.028,0.0279,0,0,0.0317,0.0326,0.0334,0.0352,0.0353,0.036,0.0351,0.0355,0.0358,0.034,0.0342,0.0336,0.0319,0.0319,0.0318,0.0309,0.0311,0.0311,0.0314,0.0306,0.0295,0.0297,0.0298,0.028,0.028,0.028,0,0,0.032,0.0338,0.035,0.0358,0.0365,0.0366,0.037,0.0373,0.0372,0.0377,0.0363,0.036,0.0351,0.0341,0.0333,0.0348,0.033,0.0347,0.0355,0.0346,0.0348,0.0348,0.0345,0.0345,0.0346,0.0346,0.0346,0,0.032,0.0338,0.0352,0.0363,0.0363,0.037,0.0375,0.0381,0.0382,0.0381,0.038,0.037,0.0359,0.0353,0.0357,0.0354,0.0347,0.0344,0.035,0.0351,0.0351,0.0347,0.0347,0.0347,0.0347,0.0347,0.0347,0,0.0331,0.0345,0.0349,0.0368,0.0376,0.0379,0.039,0.0398,0.0399,0.0401,0.0403,0.0396,0.0385,0.0387,0.0375,0.0373,0.0368,0.0359,0.0342,0.0355,0.035,0.0349,0.035,0.0349,0.0349,0.0348,0,0,0.0324,0.0351,0.0351,0.0355,0.0375,0.0378,0.0392,0.0399,0.0402,0.0413,0.0417,0.041,0.0409,0.04,0.0392,0.0384,0.0387,0.0373,0.0371,0.0371,0.0371,0.0362,0.036,0.0379,0.0379,0.0379,0.0371,0,0.0322,0.0335,0.0353,0.0359,0.0363,0.0378,0.0387,0.0398,0.0409,0.0421,0.042,0.0423,0.0414,0.0413,0.0406,0.0398,0.0384,0.0389,0.0357,0.0356,0.0346,0.0358,0.0419,0.0417,0.037,0.037,0.037,0,0.0323,0.0329,0.0336,0.0347,0.035,0.0358,0.0368,0.038,0.0403,0.0413,0.0424,0.0431,0.0434,0.0421,0.0407,0.0413,0.0388,0.0377,0.0376,0.0351,0.0344,0.0393,0.0416,0.0381,0.0368,0.0369,0.0369,0,0.0298,0.0314,0.0314,0.0319,0.0338,0.034,0.035,0.0372,0.0384,0.0411,0.0426,0.0435,0.0441,0.0424,0.0413,0.0407,0.0397,0.0385,0.0349,0.0348,0.0384,0.0387,0.0368,0.0353,0.0353,0.0353,0.0353,0,0.0284,0.0282,0.03,0.0299,0.0296,0.0319,0.0325,0.0341,0.0372,0.0393,0.0417,0.0436,0.0439,0.0443,0.0422,0.0394,0.0402,0.0349,0.0343,0.0399,0.0403,0.0359,0.0324,0.0352,0.0352,0.0353,0.0353,0,0.0257,0.0271,0.0269,0.0282,0.0285,0.0283,0.031,0.0323,0.0351,0.0384,0.0395,0.0436,0.0448,0.0449,0.0429,0.0401,0.0367,0.0355,0.0425,0.0426,0.035,0.0316,0.0263,0.0271,0.0316,0.0316,0.0316,0,0.0243,0.024,0.025,0.0251,0.0255,0.0261,0.0273,0.0306,0.0332,0.0384,0.0404,0.0429,0.0472,0.0457,0.0425,0.0399,0.0355,0.0398,0.0386,0.0352,0.031,0.0279,0.0288,0.0457,0.0458,0.0459,0.0459,0,0.0207,0.0214,0.0217,0.0222,0.0231,0.025,0.0273,0.0296,0.0347,0.0392,0.0456,0.0497,0.0494,0.0529,0.048,0.0444,0.0395,0.0408,0.0363,0.0404,0.0381,0.0385,0.0455,0.0466,0.0465,0.0465,0.0465,0.0464,0.0177,0.0174,0.0184,0.0193,0.0213,0.0252,0.0283,0.0333,0.0396,0.051,0.052,0.0657,0.0663,0.0624,0.0527,0.0434,0.0401,0.0422,0.0381,0.0351,0.0361,0.0437,0.0441,0.044,0.0439,0.0438,0.0438,0,0.0133,0.0144,0.0154,0.0182,0.0219,0.0235,0.0296,0.0356,0.0456,0.0606,0.0702,0.0883,0.0834,0.0752,0.06,0.0467,0.0423,0.0397,0.0387,0.0397,0.047,0.0479,0.0504,0.0504,0.0504,0.0504,0.0504,0.0504,0.0107,0.0108,0.0126,0.0181,0.0218,0.0285,0.0335,0.0436,0.0567,0.0811,0.1012,0.1145,0.1169,0.0742,0.0501,0.0438,0.0366,0.033,0.0272,0.0336,0.0336,0.0336,0.0338,0.0333,0.0333,0.0263,0.0262,0.0262]}],[{"header":{"parameterUnit":"m.s-1","parameterCategory":2,"la1":30.2991,"la2":30.254,"lo1":-89.0895,"lo2":-89.0444,"dy":0.0017,"dx":0.0017,"nx":28,"ny":28,"refTime":"2023-08-24T03:00:00:Z","depth":"2","parameterNumber":2,"parameterNumberName":"U-component_of_CURRENTS"},"data":[0,0,0,0,0,0,0,0,0,0,0,0,0,0,0,0,0,0,0,0,0,0,0,0,0,0,0,0,0,0,0,0,0,0,0,0,0,0,0,0,0,0,0,0,0,0,0,0,0,0,0,0,0,0,0,0,0,0,0.1841,0.1842,0,0.1913,0.1914,0.1914,0.1919,0.1918,0.1917,0.1917,0.1931,0.1932,0.1933,0,0,0,0,0,0,0,0,0,0,0,0,0,0.1758,0.1759,0.1841,0.1842,0.1843,0.1913,0.1914,0.1915,0.1919,0.1918,0.1917,0.1916,0.193,0.1932,0.1933,0,0,0,0,0,0,0,0,0,0,0,0,0,0.1807,0.1759,0.1841,0.1854,0.1856,0.1913,0.1914,0.1915,0.1919,0.1918,0.1917,0.1916,0.193,0.1931,0.1933,0.1965,0,0,0.1938,0.1939,0,0,0,0,0,0,0,0,0.1804,0.181,0.1851,0.1854,0.1856,0.1906,0.189,0.1929,0.1919,0.1894,0.1917,0.1915,0.1919,0.1921,0.1937,0.1966,0.1966,0.1938,0.1939,0.194,0.194,0,0,0,0,0,0,0,0.1801,0.1807,0.1869,0.1853,0.1855,0.1874,0.1879,0.1897,0.191,0.1896,0.1897,0.1907,0.1919,0.1935,0.1937,0.1967,0.1938,0.1939,0.194,0.1941,0.2039,0.204,0,0,0,0,0,0,0.1793,0.1804,0.1867,0.1871,0.1828,0.1876,0.1882,0.1891,0.1911,0.1914,0.1908,0.1907,0.1933,0.1935,0.1937,0.1978,0.194,0.1941,0.1942,0.2037,0.2039,0.2041,0,0,0,0,0,0,0.1791,0.1798,0.1864,0.184,0.185,0.1878,0.1888,0.1893,0.191,0.1921,0.1922,0.1921,0.1932,0.1935,0.1963,0.1978,0.1942,0.1943,0.2035,0.2038,0.204,0.2058,0,0,0,0,0,0,0.1788,0.1796,0.1809,0.1839,0.1851,0.1898,0.189,0.1895,0.1918,0.1918,0.1932,0.1933,0.1932,0.1961,0.1965,0.198,0.1945,0.2033,0.2036,0.2039,0.2055,0.2061,0.2065,0,0,0,0,0,0.1785,0.18,0.1809,0.1817,0.1864,0.1899,0.1907,0.1922,0.192,0.1933,0.1947,0.1932,0.1983,0.1964,0.1968,0.1983,0.2032,0.2035,0.2039,0.2053,0.206,0.2065,0,0,0,0,0,0,0.1777,0.1803,0.1813,0.1838,0.1868,0.1899,0.1917,0.1929,0.1953,0.1951,0.1954,0.1956,0.1992,0.1991,0.1969,0.2024,0.2005,0.201,0.2014,0.2021,0.2026,0.1996,0.1946,0,0,0,0,0,0.1781,0.1794,0.1827,0.1849,0.1863,0.1893,0.1912,0.1923,0.1946,0.1956,0.1969,0.1986,0.2014,0.2017,0.2043,0.2067,0.2064,0.2082,0.2087,0.2091,0.2072,0.2113,0.2119,0.2053,0.2053,0.2053,0,0,0.1784,0.1802,0.181,0.1848,0.1871,0.1893,0.1901,0.193,0.1946,0.1954,0.1981,0.2011,0.2029,0.2063,0.2076,0.2057,0.2108,0.2096,0.2098,0.2077,0.2117,0.2124,0.2129,0.2056,0.2055,0.2055,0,0,0.1791,0.1813,0.1824,0.1848,0.1884,0.1902,0.191,0.1948,0.1961,0.1996,0.2013,0.2047,0.2079,0.2097,0.2109,0.2158,0.2145,0.2172,0.2157,0.2198,0.2203,0.2208,0.2204,0.2208,0.2161,0.2161,0.2161,0,0.1796,0.1812,0.1836,0.1855,0.1871,0.1903,0.1918,0.1944,0.1986,0.1996,0.2002,0.207,0.2092,0.2126,0.2146,0.2166,0.2173,0.2129,0.2203,0.2207,0.2211,0.2206,0.221,0.2162,0.2162,0.2162,0.2162,0,0.1806,0.1825,0.1836,0.1862,0.1885,0.1906,0.1938,0.1963,0.1982,0.2003,0.2048,0.2089,0.2119,0.2146,0.2157,0.2202,0.2193,0.2214,0.218,0.2218,0.2211,0.2215,0.2164,0.2163,0.2163,0.2163,0,0,0.18,0.1834,0.1838,0.1847,0.1887,0.1905,0.1931,0.1961,0.1972,0.2017,0.2033,0.2098,0.2118,0.2134,0.2166,0.2195,0.224,0.2211,0.2213,0.2192,0.2301,0.2198,0.2192,0.2281,0.2282,0.2282,0.228,0,0.1801,0.1822,0.184,0.1862,0.1876,0.1905,0.1924,0.1955,0.1982,0.2009,0.205,0.2086,0.2114,0.2135,0.2174,0.2227,0.2253,0.2236,0.2278,0.2278,0.2171,0.2195,0.2007,0.198,0.2283,0.2284,0.2284,0,0.1803,0.1815,0.1831,0.1854,0.1862,0.188,0.1905,0.1928,0.1969,0.1988,0.2022,0.2057,0.2103,0.2133,0.2211,0.2201,0.2248,0.2284,0.2286,0.218,0.2183,0.1995,0.1976,0.229,0.229,0.2289,0.2289,0,0.178,0.1808,0.1815,0.1826,0.1859,0.1869,0.1886,0.1922,0.1932,0.1974,0.1981,0.2042,0.2064,0.214,0.2198,0.2218,0.2271,0.2313,0.2258,0.225,0.2088,0.2064,0.2375,0.2375,0.2375,0.2375,0.2375,0,0.1768,0.1776,0.1806,0.1812,0.182,0.185,0.186,0.1884,0.1912,0.1919,0.1969,0.1978,0.2073,0.2109,0.2182,0.22,0.2259,0.224,0.2245,0.2088,0.2065,0.2336,0.2331,0.2375,0.2375,0.2375,0.2375,0,0.1739,0.1763,0.1774,0.1802,0.1812,0.1817,0.1839,0.1843,0.187,0.188,0.1889,0.193,0.1979,0.2046,0.2148,0.2151,0.2203,0.2203,0.198,0.1958,0.216,0.2157,0.2143,0.214,0.2137,0.2134,0.2132,0,0.1722,0.1726,0.1757,0.1762,0.1775,0.1787,0.1794,0.1823,0.1824,0.1846,0.1844,0.188,0.1903,0.1959,0.1983,0.2039,0.2141,0.1867,0.1879,0.2131,0.2138,0.214,0.2141,0.1674,0.1668,0.1663,0.166,0,0.1681,0.1698,0.1703,0.1716,0.1727,0.1727,0.1738,0.1732,0.1759,0.1762,0.1768,0.1786,0.1816,0.1745,0.1762,0.1795,0.1839,0.1772,0.2101,0.1757,0.1687,0.1695,0.1712,0.1618,0.1622,0.1625,0.1627,0.1629,0.1645,0.1633,0.1646,0.1652,0.1665,0.1652,0.1631,0.1637,0.1624,0.1595,0.1653,0.1567,0.1563,0.1478,0.1492,0.1486,0.1642,0.1563,0.1578,0.1598,0.154,0.1468,0.1345,0.1347,0.1349,0.1351,0.1353,0,0.1576,0.1578,0.1577,0.1565,0.1541,0.1599,0.1578,0.1516,0.1475,0.1442,0.143,0.119,0.1139,0.1161,0.1086,0.1127,0.1161,0.1093,0.1098,0.1137,0.1173,0.1096,0.0782,0.0781,0.0779,0.0778,0,0,0.1537,0.15,0.1494,0.1438,0.1456,0.1411,0.1402,0.1314,0.1235,0.1085,0.0969,0.1022,0.102,0.0816,0.0859,0.0789,0.0966,0.0777,0.1224,0.1261,0.1295,0.1422,0.1343,0,0,0,0,0]},{"header":{"parameterUnit":"m.s-1","parameterCategory":2,"la1":30.2991,"la2":30.254,"lo1":-89.0895,"lo2":-89.0444,"dy":0.0017,"dx":0.0017,"nx":28,"ny":28,"refTime":"2023-08-24T03:00:00:Z","depth":"2","parameterNumber":3,"parameterNumberName":"V-component_of_CURRENTS"},"data":[0,0,0,0,0,0,0,0,0,0,0,0,0,0,0,0,0,0,0,0,0,0,0,0,0,0,0,0,0,0,0,0,0,0,0,0,0,0,0,0,0,0,0,0,0,0,0,0,0,0,0,0,0,0,0,0,0,0,-0.0345,-0.0345,0,-0.0363,-0.0363,-0.0364,-0.0422,-0.0423,-0.0425,-0.0426,-0.054,-0.0541,-0.0543,0,0,0,0,0,0,0,0,0,0,0,0,0,-0.0353,-0.0352,-0.0345,-0.0345,-0.0345,-0.0363,-0.0363,-0.0364,-0.0422,-0.0423,-0.0425,-0.0427,-0.0539,-0.0541,-0.0543,0,0,0,0,0,0,0,0,0,0,0,0,0,-0.0358,-0.0352,-0.0345,-0.0377,-0.038,-0.0363,-0.0363,-0.0364,-0.0421,-0.0423,-0.0425,-0.0427,-0.0538,-0.0541,-0.0544,-0.052,0,0,-0.0552,-0.0553,0,0,0,0,0,0,0,0,-0.0357,-0.0357,-0.0372,-0.0374,-0.0378,-0.0393,-0.0408,-0.0421,-0.0421,-0.0405,-0.0426,-0.0428,-0.0498,-0.0504,-0.0501,-0.0526,-0.0531,-0.0552,-0.0554,-0.0555,-0.0556,0,0,0,0,0,0,0,-0.0357,-0.0357,-0.0352,-0.0372,-0.0375,-0.0388,-0.0391,-0.041,-0.0442,-0.0407,-0.0411,-0.0413,-0.0501,-0.0498,-0.0505,-0.0532,-0.0552,-0.0554,-0.0556,-0.0557,-0.0576,-0.0575,0,0,0,0,0,0,-0.0353,-0.0356,-0.0351,-0.0352,-0.0373,-0.0386,-0.0389,-0.0386,-0.044,-0.0449,-0.0411,-0.0416,-0.0493,-0.0502,-0.0509,-0.0517,-0.0555,-0.0557,-0.0559,-0.0577,-0.0576,-0.0574,0,0,0,0,0,0,-0.0353,-0.0352,-0.035,-0.0356,-0.0356,-0.0384,-0.0379,-0.0385,-0.0405,-0.0442,-0.0454,-0.0429,-0.0495,-0.0505,-0.0529,-0.0522,-0.0559,-0.0561,-0.0578,-0.0577,-0.0575,-0.0514,0,0,0,0,0,0,-0.0353,-0.0352,-0.0357,-0.0355,-0.0356,-0.0344,-0.0377,-0.0384,-0.0402,-0.0409,-0.046,-0.0471,-0.0497,-0.0525,-0.0532,-0.0526,-0.0563,-0.058,-0.0578,-0.0576,-0.0517,-0.051,-0.0504,0,0,0,0,0,-0.0353,-0.0347,-0.0357,-0.0357,-0.0359,-0.0343,-0.0345,-0.0371,-0.0401,-0.0399,-0.0433,-0.0471,-0.0517,-0.0526,-0.0534,-0.0529,-0.0581,-0.0578,-0.0576,-0.052,-0.0512,-0.0505,0,0,0,0,0,0,-0.0358,-0.0352,-0.0364,-0.0359,-0.0354,-0.0354,-0.036,-0.0375,-0.0398,-0.0416,-0.0457,-0.0469,-0.0487,-0.0511,-0.052,-0.0526,-0.0555,-0.0554,-0.0509,-0.0502,-0.0496,-0.0478,-0.0565,0,0,0,0,0,-0.0358,-0.0354,-0.0347,-0.0346,-0.0344,-0.0354,-0.0358,-0.037,-0.0384,-0.0398,-0.0431,-0.0462,-0.0476,-0.0494,-0.0512,-0.0516,-0.0508,-0.0517,-0.051,-0.0505,-0.0494,-0.0473,-0.0463,-0.0566,-0.0566,-0.0566,0,0,-0.0361,-0.0358,-0.0358,-0.0347,-0.035,-0.0331,-0.0362,-0.0363,-0.0351,-0.0406,-0.0415,-0.0445,-0.0472,-0.0474,-0.0484,-0.0499,-0.0465,-0.0502,-0.0497,-0.0489,-0.0469,-0.0459,-0.045,-0.0565,-0.0565,-0.0565,0,0,-0.0351,-0.0359,-0.0349,-0.0338,-0.0336,-0.0331,-0.0332,-0.0335,-0.0344,-0.0346,-0.038,-0.0394,-0.043,-0.0431,-0.044,-0.0406,-0.0432,-0.0429,-0.0384,-0.0363,-0.0354,-0.0347,-0.0296,-0.0285,-0.0425,-0.0425,-0.0425,0,-0.036,-0.034,-0.0343,-0.0323,-0.0314,-0.0328,-0.0307,-0.0302,-0.0314,-0.0311,-0.0346,-0.0367,-0.0398,-0.0379,-0.0373,-0.039,-0.0382,-0.0413,-0.0354,-0.0346,-0.0339,-0.029,-0.0278,-0.0422,-0.0422,-0.0422,-0.0423,0,-0.033,-0.032,-0.0311,-0.0287,-0.0274,-0.026,-0.0246,-0.0242,-0.0262,-0.0259,-0.0258,-0.0285,-0.0302,-0.0309,-0.0337,-0.0304,-0.0312,-0.0348,-0.0373,-0.0325,-0.0276,-0.0265,-0.0417,-0.0418,-0.0419,-0.042,0,0,-0.0337,-0.0298,-0.0299,-0.0282,-0.0256,-0.024,-0.021,-0.0182,-0.0169,-0.0179,-0.0156,-0.0174,-0.0205,-0.0215,-0.0247,-0.0227,-0.0169,-0.0273,-0.0274,-0.022,-0.0105,-0.0102,-0.0089,-0.0208,-0.0207,-0.0205,-0.008,0,-0.0318,-0.0273,-0.0259,-0.0219,-0.0193,-0.0184,-0.0155,-0.0133,-0.0128,-0.0107,-0.0112,-0.0121,-0.0163,-0.0189,-0.0168,-0.0176,-0.0141,-0.0198,-0.0162,-0.0159,-0.0161,-0.0077,-0.0101,0.0007,-0.0069,-0.0067,-0.0066,0,-0.0295,-0.0266,-0.0225,-0.0181,-0.0172,-0.0159,-0.012,-0.0097,-0.006,-0.006,-0.0051,-0.0066,-0.0037,-0.0095,-0.0043,-0.0086,-0.009,-0.0086,-0.0082,-0.0094,-0.0135,-0.0058,0.0031,-0.0047,-0.0049,-0.005,-0.0051,0,-0.029,-0.0244,-0.0213,-0.0197,-0.0149,-0.0145,-0.0135,-0.0099,-0.0078,-0.0048,-0.0036,0.0001,-0.0005,0.0018,0.0019,-0.0022,0.0088,0.0032,0.0053,0.0054,0.0035,0.0031,0.008,0.008,0.0079,0.0079,0.0079,0,-0.0263,-0.0241,-0.0221,-0.0201,-0.0176,-0.0157,-0.0137,-0.0114,-0.0084,-0.005,-0.0038,-0.0,0.0011,0.0067,0.0072,0.012,0.0133,0.0093,0.0091,0.0059,0.0056,-0.0008,-0.0019,0.0084,0.0083,0.0082,0.0081,0,-0.0247,-0.0236,-0.0197,-0.0169,-0.0173,-0.0162,-0.0153,-0.0124,-0.0115,-0.0067,-0.0064,0.0003,0.0073,0.0122,0.0177,0.0175,0.0225,0.0231,0.021,0.0203,0.0169,0.0159,0.0283,0.0284,0.0285,0.0286,0.0287,0,-0.0229,-0.0209,-0.0183,-0.0172,-0.017,-0.0167,-0.0154,-0.0147,-0.0114,-0.0058,-0.0018,0.0048,0.0161,0.0281,0.0267,0.0333,0.0286,0.0315,0.0227,0.0207,0.0193,0.0181,0.0169,0.0245,0.0245,0.0245,0.0245,0,-0.0182,-0.0184,-0.0142,-0.0131,-0.0131,-0.0111,-0.0106,-0.0078,-0.0054,0.0007,0.0113,0.021,0.028,0.0356,0.0395,0.0395,0.0306,0.0321,0.0327,0.0181,0.0176,0.016,0.0149,0.0248,0.0248,0.0247,0.0247,0.0247,-0.015,-0.0113,-0.0079,-0.0064,-0.0065,-0.0043,-0.0011,0.0041,0.0121,0.0281,0.0308,0.0488,0.044,0.0557,0.0473,0.0332,0.0349,0.0308,0.0305,0.0302,0.026,0.0255,0.0337,0.0337,0.0337,0.0337,0.0337,0,-0.0086,-0.0061,-0.0021,0.001,0.0036,-0.0016,0.0042,0.0139,0.0275,0.0466,0.0636,0.0681,0.0722,0.0609,0.0403,0.0316,0.0266,0.0267,0.0217,0.0217,0.0216,0.0166,0.022,0.0219,0.0218,0.0217,0,0,-0.0047,0.0023,0.0054,0.0106,0.0089,0.0122,0.0154,0.0328,0.0496,0.0775,0.0893,0.1094,0.0866,0.0716,0.0533,0.0368,0.0323,0.0336,0.0447,0.0412,0.0413,0.026,0.0186,0,0,0,0,0]}],[{"header":{"parameterUnit":"m.s-1","parameterCategory":2,"la1":30.2991,"la2":30.254,"lo1":-89.0895,"lo2":-89.0444,"dy":0.0017,"dx":0.0017,"nx":28,"ny":28,"refTime":"2023-08-24T03:00:00:Z","depth":"4","parameterNumber":2,"parameterNumberName":"U-component_of_CURRENTS"},"data":[0,0,0,0,0,0,0,0,0,0,0,0,0,0,0,0,0,0,0,0,0,0,0,0,0,0,0,0,0,0,0,0,0,0,0,0,0,0,0,0,0,0,0,0,0,0,0,0,0,0,0,0,0,0,0,0,0,0,-0.0139,-0.0138,0,-0.007,-0.0069,-0.0068,0.0003,0.0004,0.0005,0.0006,0.014,0.0143,0.0145,0,0,0,0,0,0,0,0,0,0,0,0,0,-0.0187,-0.0186,-0.0139,-0.0138,-0.0137,-0.007,-0.0069,-0.0068,0.0003,0.0004,0.0005,0.0006,0.0139,0.0142,0.0146,0,0,0,0,0,0,0,0,0,0,0,0,0,-0.0146,-0.0186,-0.0139,-0.0094,-0.0089,-0.007,-0.0069,-0.0068,0.0003,0.0004,0.0005,0.0007,0.0138,0.0142,0.0146,0.0143,0,0,0.0159,0.016,0,0,0,0,0,0,0,0,-0.0149,-0.0145,-0.0102,-0.0097,-0.0092,-0.0041,-0.0036,0.0006,0.0002,-0.0032,0.0006,0.0007,0.0084,0.0093,0.0102,0.0149,0.0155,0.0159,0.0161,0.0163,0.0164,0,0,0,0,0,0,0,-0.0152,-0.0147,-0.0111,-0.0101,-0.0095,-0.007,-0.0062,-0.0028,0.0019,-0.0029,-0.0024,-0.0017,0.0088,0.0098,0.0106,0.0157,0.0159,0.0162,0.0165,0.0166,0.0346,0.0348,0,0,0,0,0,0,-0.0164,-0.015,-0.0113,-0.0109,-0.0118,-0.007,-0.0062,-0.0058,0.0017,0.003,-0.0018,-0.0014,0.0091,0.0101,0.0111,0.0231,0.0163,0.0167,0.0169,0.0344,0.0347,0.0349,0,0,0,0,0,0,-0.0165,-0.0161,-0.0116,-0.0128,-0.012,-0.0071,-0.0067,-0.0058,-0.0004,0.0025,0.0039,0.0031,0.0092,0.0106,0.0185,0.0232,0.0169,0.0172,0.0341,0.0345,0.0348,0.0394,0,0,0,0,0,0,-0.0167,-0.0162,-0.0152,-0.0129,-0.012,-0.008,-0.0068,-0.0057,-0.0005,0.0003,0.007,0.0082,0.0094,0.0179,0.0189,0.0237,0.0176,0.0338,0.0343,0.0347,0.0389,0.0398,0.0406,0,0,0,0,0,-0.0169,-0.0162,-0.0152,-0.0147,-0.0112,-0.0079,-0.0071,-0.0031,-0.0004,0.0023,0.0078,0.0082,0.0214,0.0184,0.0195,0.0245,0.0336,0.0341,0.0347,0.0385,0.0396,0.0406,0,0,0,0,0,0,-0.0178,-0.0154,-0.0142,-0.0128,-0.0095,-0.0066,-0.004,-0.0009,0.0053,0.0075,0.0108,0.0123,0.0212,0.0223,0.0189,0.0312,0.0277,0.0285,0.0303,0.0314,0.0322,0.0281,0.0179,0,0,0,0,0,-0.0178,-0.0165,-0.0136,-0.0122,-0.0104,-0.0063,-0.0039,-0.0006,0.0042,0.0072,0.0126,0.0183,0.0233,0.027,0.0314,0.0377,0.0344,0.042,0.0428,0.0435,0.0412,0.0406,0.041,0.0367,0.0366,0.0366,0,0,-0.0181,-0.0164,-0.0157,-0.0122,-0.0094,-0.0066,-0.0043,0.0006,0.0041,0.0076,0.0162,0.0219,0.0258,0.0333,0.0373,0.0354,0.0433,0.0442,0.0447,0.0419,0.0412,0.0415,0.0419,0.037,0.0369,0.0369,0,0,-0.0182,-0.0159,-0.0146,-0.0116,-0.0066,-0.0043,-0.0018,0.0045,0.0088,0.0167,0.0206,0.0281,0.0372,0.0399,0.0422,0.0501,0.0479,0.0545,0.0555,0.0551,0.0553,0.0555,0.0518,0.0516,0.0548,0.0548,0.0548,0,-0.0182,-0.0164,-0.0135,-0.011,-0.0081,-0.0028,0.0003,0.0042,0.0131,0.017,0.0205,0.0344,0.0388,0.0449,0.0488,0.0516,0.0505,0.0511,0.0558,0.0558,0.0559,0.0521,0.0517,0.0551,0.0551,0.0551,0.055,0,-0.0171,-0.0149,-0.0134,-0.0092,-0.0056,-0.0016,0.0035,0.0097,0.0167,0.021,0.0317,0.038,0.0459,0.05,0.0522,0.057,0.0558,0.0567,0.052,0.0565,0.0523,0.0519,0.0555,0.0554,0.0553,0.0553,0,0,-0.0183,-0.0139,-0.0129,-0.0104,-0.0036,-0.0005,0.0054,0.012,0.0165,0.0266,0.033,0.0431,0.0485,0.0513,0.0564,0.0568,0.0576,0.0582,0.058,0.0523,0.0553,0.0552,0.0546,0.0607,0.0606,0.0606,0.0521,0,-0.0175,-0.014,-0.0114,-0.0064,-0.0032,0.0026,0.007,0.014,0.0212,0.0289,0.0359,0.0443,0.0482,0.0545,0.0558,0.0585,0.0569,0.0597,0.0536,0.0532,0.0508,0.0543,0.0605,0.0517,0.0516,0.0515,0.0515,0,-0.0156,-0.0136,-0.0097,-0.004,-0.002,0.0014,0.0105,0.0154,0.0245,0.0306,0.0391,0.0454,0.0513,0.0534,0.0548,0.0575,0.0562,0.0555,0.0552,0.0523,0.0524,0.0466,0.0506,0.0507,0.0507,0.0508,0.0509,0,-0.0158,-0.0112,-0.0082,-0.0061,0.0001,0.0039,0.0087,0.0172,0.0221,0.0323,0.0373,0.0448,0.0506,0.0504,0.053,0.0546,0.0512,0.0524,0.0485,0.0483,0.0484,0.0484,0.0487,0.0487,0.0487,0.0488,0.0488,0,-0.0142,-0.0117,-0.0081,-0.0063,-0.0016,0.0042,0.0105,0.0162,0.0246,0.0298,0.0389,0.0434,0.0507,0.0519,0.0513,0.0493,0.0495,0.0473,0.0466,0.0509,0.0512,0.048,0.0481,0.0484,0.0485,0.0486,0.0486,0,-0.0138,-0.0118,-0.0088,-0.0038,-0.0017,0.0026,0.0108,0.0152,0.023,0.0299,0.0337,0.0431,0.0453,0.0479,0.0474,0.0473,0.0444,0.0422,0.0442,0.044,0.0411,0.0415,0.0362,0.0361,0.0361,0.036,0.036,0,-0.0132,-0.0121,-0.0083,-0.0066,-0.0041,0.0022,0.0064,0.0148,0.0191,0.0284,0.0311,0.0369,0.0422,0.0397,0.043,0.0396,0.0396,0.0373,0.0412,0.0401,0.04,0.0406,0.041,0.0359,0.0359,0.0359,0.0359,0,-0.0138,-0.0131,-0.0112,-0.008,-0.0043,-0.0002,0.0062,0.0086,0.0179,0.024,0.0291,0.033,0.035,0.0378,0.0369,0.0344,0.0396,0.0367,0.0368,0.0405,0.0397,0.0398,0.0403,0.0357,0.0357,0.0357,0.0357,0,-0.0149,-0.0139,-0.0124,-0.0091,-0.0057,-0.003,0.0006,0.0061,0.0113,0.0216,0.0222,0.0277,0.0335,0.0346,0.0327,0.0327,0.0324,0.0321,0.0324,0.0326,0.0365,0.0354,0.0283,0,0,0,0,0,-0.0157,-0.0148,-0.0133,-0.01,-0.0073,-0.0056,0.0002,0.004,0.0115,0.0142,0.0189,0.0208,0.0243,0.0271,0.0262,0.0298,0.0309,0.0288,0.0303,0.0346,0.0348,0.0403,0,0,0,0,0,0,-0.0162,-0.0147,-0.0142,-0.0124,-0.0108,-0.0075,-0.0048,-0.0002,0.0025,0.0101,0.0117,0.0189,0.0214,0.0232,0.0252,0.026,0.0266,0.0324,0.0324,0.0345,0.0347,0.0349,0.0406,0,0,0,0,0]},{"header":{"parameterUnit":"m.s-1","parameterCategory":2,"la1":30.2991,"la2":30.254,"lo1":-89.0895,"lo2":-89.0444,"dy":0.0017,"dx":0.0017,"nx":28,"ny":28,"refTime":"2023-08-24T03:00:00:Z","depth":"4","parameterNumber":3,"parameterNumberName":"V-component_of_CURRENTS"},"data":[0,0,0,0,0,0,0,0,0,0,0,0,0,0,0,0,0,0,0,0,0,0,0,0,0,0,0,0,0,0,0,0,0,0,0,0,0,0,0,0,0,0,0,0,0,0,0,0,0,0,0,0,0,0,0,0,0,0,0.0272,0.0272,0,0.0259,0.0259,0.0258,0.0265,0.0266,0.0266,0.0267,0.0195,0.0193,0.019,0,0,0,0,0,0,0,0,0,0,0,0,0,0.0246,0.0247,0.0272,0.0272,0.0273,0.0259,0.0259,0.0258,0.0265,0.0266,0.0267,0.0267,0.0196,0.0193,0.019,0,0,0,0,0,0,0,0,0,0,0,0,0,0.0244,0.0247,0.0272,0.0277,0.0278,0.026,0.0259,0.0258,0.0265,0.0266,0.0267,0.0268,0.0197,0.0194,0.019,0.0144,0,0,0.0178,0.0176,0,0,0,0,0,0,0,0,0.0244,0.0244,0.0276,0.0277,0.0278,0.0269,0.0224,0.0218,0.0264,0.0265,0.0267,0.0268,0.0216,0.0211,0.0201,0.0141,0.0138,0.0178,0.0175,0.0174,0.0172,0,0,0,0,0,0,0,0.0244,0.0245,0.0263,0.0277,0.0278,0.0261,0.0262,0.0222,0.023,0.0265,0.0267,0.0272,0.0216,0.0205,0.0199,0.0137,0.0178,0.0174,0.0172,0.017,0.005,0.0049,0,0,0,0,0,0,0.0256,0.0245,0.0263,0.0263,0.0268,0.0262,0.0262,0.0267,0.0232,0.023,0.0271,0.0272,0.0211,0.0204,0.0197,0.0183,0.0174,0.017,0.0168,0.0051,0.0049,0.0049,0,0,0,0,0,0,0.0256,0.0258,0.0264,0.0257,0.0257,0.0262,0.0266,0.0266,0.0274,0.0238,0.0234,0.0282,0.0211,0.0202,0.0168,0.0179,0.0168,0.0165,0.0052,0.005,0.0049,0.0128,0,0,0,0,0,0,0.0255,0.0258,0.0277,0.0258,0.0258,0.0261,0.0266,0.0265,0.0277,0.0279,0.0245,0.0239,0.0212,0.0174,0.0164,0.0173,0.0162,0.0053,0.0051,0.0049,0.0126,0.0129,0.0132,0,0,0,0,0,0.0254,0.0264,0.0277,0.0281,0.028,0.0261,0.0259,0.0263,0.0277,0.0275,0.0252,0.0241,0.0156,0.017,0.0159,0.0167,0.0053,0.0051,0.005,0.0125,0.0129,0.0132,0,0,0,0,0,0,0.0261,0.0265,0.028,0.0293,0.0286,0.0264,0.0276,0.0272,0.0254,0.0264,0.0228,0.0219,0.019,0.0158,0.0174,0.0123,0.0103,0.0099,0.0164,0.0167,0.017,0.02,0.0158,0,0,0,0,0,0.0274,0.029,0.0281,0.0298,0.03,0.0293,0.0293,0.029,0.0269,0.0265,0.0241,0.0208,0.0168,0.0155,0.0112,0.0086,0.0053,0.008,0.0083,0.0086,0.01,0.0039,0.0039,0.0042,0.0042,0.0042,0,0,0.0287,0.0292,0.0305,0.0303,0.0307,0.03,0.0295,0.0298,0.0294,0.0256,0.025,0.0215,0.0159,0.013,0.0115,0.0112,0.0068,0.0084,0.0087,0.0099,0.0037,0.0037,0.0037,0.0041,0.0041,0.0041,0,0,0.0303,0.0324,0.0337,0.0332,0.0337,0.0324,0.0329,0.0313,0.0313,0.0295,0.0263,0.0237,0.0186,0.0149,0.0123,0.011,0.0079,0.0097,0.0147,0.0088,0.0088,0.0088,0.0058,0.0054,0.0106,0.0107,0.0107,0,0.0322,0.0336,0.0336,0.0338,0.0347,0.0337,0.0342,0.0327,0.0302,0.0297,0.0305,0.0231,0.0195,0.0148,0.0156,0.012,0.0092,0.0147,0.0095,0.0094,0.0092,0.0061,0.0056,0.011,0.011,0.0109,0.0109,0,0.0331,0.0353,0.036,0.0366,0.0366,0.0371,0.0354,0.035,0.0358,0.0339,0.0313,0.0267,0.0233,0.021,0.019,0.0155,0.0141,0.0103,0.0098,0.0098,0.0064,0.0057,0.0115,0.0114,0.0113,0.0112,0,0,0.0348,0.0366,0.0373,0.039,0.0387,0.0384,0.0381,0.0367,0.0365,0.0352,0.0351,0.03,0.0297,0.0266,0.023,0.019,0.0166,0.0164,0.0159,0.0155,0.006,0.0092,0.0088,0.0123,0.0122,0.0121,0.0047,0,0.0364,0.0386,0.0385,0.0408,0.042,0.0414,0.0412,0.0397,0.0384,0.0373,0.0341,0.0325,0.0309,0.0313,0.0271,0.018,0.015,0.0191,0.0043,0.0039,0.0084,0.0081,0.0118,0.0042,0.004,0.0039,0.0038,0,0.0367,0.0391,0.0424,0.0444,0.045,0.046,0.0465,0.0462,0.0431,0.0428,0.0413,0.0382,0.0347,0.0333,0.021,0.024,0.0175,0.0106,0.01,0.0101,0.0059,0.0034,0.0026,0.0027,0.0028,0.0029,0.0029,0,0.0377,0.0409,0.0447,0.0456,0.0474,0.0497,0.0512,0.049,0.0495,0.048,0.048,0.0419,0.0411,0.031,0.0206,0.0209,0.0057,0.0029,-0.0007,-0.0005,-0.0045,-0.0044,-0.0055,-0.0055,-0.0055,-0.0055,-0.0054,0,0.0379,0.0408,0.0468,0.0485,0.0533,0.0545,0.0576,0.0569,0.0573,0.0573,0.0535,0.0514,0.0407,0.0312,0.021,0.0093,0.006,0.0012,-0.0023,-0.0011,-0.0005,-0.0049,-0.0047,-0.0057,-0.0057,-0.0056,-0.0056,0,0.0378,0.041,0.0457,0.0515,0.0538,0.0584,0.0638,0.0645,0.0654,0.0655,0.0667,0.0591,0.0479,0.0346,0.0173,0.0111,-0.0022,-0.0059,-0.0012,-0.0046,-0.0042,-0.0036,-0.0096,-0.0095,-0.0095,-0.0094,-0.0094,0,0.0375,0.0407,0.0489,0.0525,0.0563,0.0633,0.0665,0.0695,0.0703,0.0687,0.0682,0.0602,0.0534,0.0312,0.0181,-0.0005,-0.0031,-0.0077,-0.0064,-0.0018,-0.0048,-0.0042,-0.0037,-0.0093,-0.0093,-0.0093,-0.0093,0,0.0383,0.0425,0.0467,0.0545,0.0602,0.0657,0.0714,0.0717,0.0741,0.0749,0.0691,0.0602,0.0476,0.032,0.0188,0.0046,-0.0036,-0.0073,-0.0075,-0.0063,-0.0017,-0.0045,-0.004,-0.0092,-0.0092,-0.0092,-0.0092,0,0.0398,0.0433,0.0495,0.0565,0.0628,0.067,0.0689,0.0707,0.0725,0.0709,0.0688,0.0565,0.0512,0.0345,0.0206,0.0094,0.0069,0.0042,0.0034,0.0031,0.0095,0.0174,0.0136,0,0,0,0,0,0.0416,0.046,0.0508,0.0583,0.064,0.0685,0.0713,0.0723,0.0736,0.0701,0.0703,0.0587,0.0424,0.0344,0.0235,0.0203,0.004,0.0075,0.0001,-0.0084,-0.0085,-0.0027,0,0,0,0,0,0,0.0433,0.0484,0.0508,0.0591,0.0643,0.0706,0.0722,0.0719,0.0695,0.0693,0.0591,0.0596,0.0412,0.0496,0.0249,0.0217,0.0163,0.0008,0.0007,-0.0083,-0.0084,-0.0085,-0.0027,0,0,0,0,0]}]]